Location: Lewisville
(33.0462°N, 96.9942°W)
Time: 11:22:19
(UTC-06:00)

N. Korean satellite - Pass Details

Date: 01 December 2019
Orbit: 454 x 507 km, 97.2° (Epoch: 20 January)

Event Time Altitude Azimuth Distance (km) Brightness Sun altitude
Rises 06:02:51 0° 15° (NNE) 2,567 10.2 -14.5°
Reaches altitude 10° 06:04:58 10° 19° (NNE) 1,673 9.3 -14.1°
Maximum altitude 06:08:31 59° 100° (E) 556 7.2 -13.4°
Drops below altitude 10° 06:11:58 10° 181° (S) 1,630 9.4 -12.7°
Sets 06:14:01 0° 185° (S) 2,493 10.4 -12.3°
